TimeMST,TemperatureF,Dew PointF,Humidity,Sea Level PressureIn,VisibilityMPH,Wind Direction,Wind SpeedMPH,Gust SpeedMPH,PrecipitationIn,Events,Conditions,WindDirDegrees,DateUTC
12:53 AM,28.9,14.0,54,30.29,10.0,WSW,28.8,41.4,N/A,,Clear,250,2013-12-12 07:53:00
1:53 AM,30.0,14.0,51,30.23,10.0,WSW,36.8,61.0,N/A,,Clear,240,2013-12-12 08:53:00
2:53 AM,30.0,14.0,51,30.25,10.0,WSW,33.4,49.5,N/A,,Clear,240,2013-12-12 09:53:00
3:53 AM,30.0,14.0,51,30.25,10.0,WSW,35.7,46.0,N/A,,Clear,250,2013-12-12 10:53:00
4:53 AM,30.0,14.0,51,30.25,10.0,WSW,34.5,49.5,N/A,,Clear,250,2013-12-12 11:53:00
5:53 AM,30.9,15.1,52,30.22,10.0,WSW,36.8,50.6,N/A,,Clear,250,2013-12-12 12:53:00
6:53 AM,33.1,16.0,50,30.19,10.0,SW,39.1,50.6,N/A,,Clear,230,2013-12-12 13:53:00
7:53 AM,34.0,16.0,48,30.17,10.0,SW,49.5,61.0,N/A,,Clear,220,2013-12-12 14:53:00
8:53 AM,34.0,16.0,48,30.19,10.0,SW,33.4,46.0,N/A,,Clear,220,2013-12-12 15:53:00
9:53 AM,35.1,16.0,46,30.19,10.0,SSW,32.2,46.0,N/A,,Clear,210,2013-12-12 16:53:00
10:53 AM,37.9,18.0,45,30.16,10.0,SSW,32.2,48.3,N/A,,Clear,210,2013-12-12 17:53:00
11:53 AM,39.9,18.0,41,30.13,10.0,SW,36.8,49.5,N/A,,Clear,220,2013-12-12 18:53:00
12:53 PM,39.9,18.0,41,30.08,10.0,SW,35.7,43.7,N/A,,Clear,220,2013-12-12 19:53:00
1:53 PM,41.0,18.0,40,30.06,10.0,SW,29.9,47.2,N/A,,Clear,220,2013-12-12 20:53:00
2:53 PM,41.0,18.0,40,30.04,10.0,SW,38.0,48.3,N/A,,Clear,220,2013-12-12 21:53:00
3:53 PM,39.9,18.0,41,30.05,10.0,WSW,26.5,38.0,N/A,,Clear,250,2013-12-12 22:53:00
4:53 PM,39.9,17.1,40,30.02,10.0,SW,32.2,49.5,N/A,,Clear,220,2013-12-12 23:53:00
5:53 PM,37.9,16.0,41,30.01,10.0,WSW,27.6,41.4,N/A,,Clear,250,2013-12-13 00:53:00
6:53 PM,36.0,16.0,44,30.01,10.0,West,23.0,33.4,N/A,,Clear,260,2013-12-13 01:53:00
7:53 PM,37.0,15.1,41,29.99,10.0,SW,34.5,49.5,N/A,,Clear,220,2013-12-13 02:53:00
8:53 PM,37.0,16.0,42,30.00,10.0,WSW,29.9,43.7,N/A,,Mostly Cloudy,240,2013-12-13 03:53:00
9:53 PM,36.0,16.0,44,30.00,10.0,WSW,26.5,33.4,N/A,,Scattered Clouds,240,2013-12-13 04:53:00
10:53 PM,36.0,15.1,43,29.98,10.0,SW,28.8,43.7,N/A,,Clear,230,2013-12-13 05:53:00
11:53 PM,35.1,15.1,44,29.97,10.0,WSW,29.9,36.8,N/A,,Clear,240,2013-12-13 06:53:00